Regional Weather Roundup
Issued by NWS Cleveland, OH

Home | Current Version | Previous Version | Graphics & Text | Print | Product List | Glossary On
Versions: 1 2 3 4 5 6 7 8 9 10 11 12 13 14 15 16 17 18 19 20 21 22 23 24 25 26 27 28 29 30 31 32 33 34 35 36 37 38 39 40 41 42 43 44 45 46 47 48 49 50
181
ASUS41 KCLE 111300
RWRCLE
OHIO REGIONAL WEATHER ROUNDUP
NATIONAL WEATHER SERVICE WILMINGTON, OH
800 AM EST SUN DEC 11 2016

NOTE: "FAIR" INDICATES FEW OR NO CLOUDS BELOW 12,000 FEET WITH NO
SIGNIFICANT WEATHER AND/OR OBSTRUCTIONS TO VISIBILITY.

OHZ001>008-015>018-024>027-034-035-043-044-111400-
   NORTHWEST OHIO

CITY           SKY/WX    TMP DP  RH WIND       PRES   REMARKS
DEFIANCE       FLURRIES  26  21  81 SE9       30.24F WCI  17
FINDLAY        CLOUDY    26  20  77 SE14      30.25F WCI  14
TOLEDO EXPRESS LGT SNOW  24  23  96 SE5       30.25F FOG     WCI  18
TOLEDO EXEC    LGT SNOW  25  23  92 SE10      30.28F FOG     WCI  15
LIMA           CLOUDY    25  22  88 SE12      30.23F WCI  14
$$

OHZ009>014-019>023-028>033-038-089-111400-
   NORTHEAST OHIO

CITY           SKY/WX    TMP DP  RH WIND       PRES   REMARKS
CLE-HOPKINS    CLOUDY    25  20  81 S9        30.35F WCI  15
CLE-LAKEFRONT  LGT SNOW  25  21  85 SE9       30.33F FOG     WCI  15
CUY CO. ARPT   LGT SNOW  25  21  86 S9        30.33F WCI  15
LORAIN-ELYRIA  LGT SNOW  23  19  85 S9        30.32F FOG     WCI  13
ASHTABULA      LGT SNOW  22  20  92 S9        30.35F FOG     WCI  12
AKRON-CANTON   CLOUDY    23  19  85 S9        30.32F FOG     WCI  13
WOOSTER        NOT AVBL
MANSFIELD      LGT SNOW  22  20  92 SE9       30.29F FOG     WCI  12
YOUNGSTOWN     LGT SNOW  22  19  89 SE8       30.34F WCI  12
$$

OHZ042-051>053-060>062-070>072-077>081-111400-
  SOUTHWEST OHIO

CITY           SKY/WX    TMP DP  RH WIND       PRES   REMARKS
CINC-COVINGTON CLOUDY    30  18  60 SE13      30.25F WCI  20
CINC-LUNKEN    CLOUDY    32  19  58 VRB3      30.30F
HAMILTON       CLOUDY    31  19  61 SE5       30.28F WCI  26
DAYTON         NOT AVBL
WRIGHT-PAT AFB NOT AVBL
DAYTON GENERAL CLOUDY    29  18  63 SE12      30.25F WCI  19
WILMINGTON     CLOUDY    28  18  66 SE9       30.27F WCI  19
$$

OHZ036-037-039>041-045>050-054>059-063>069-073>076-082>088-111400-
  CENTRAL AND SOUTHEAST OHIO

CITY           SKY/WX    TMP DP  RH WIND       PRES   REMARKS
COLUMBUS       CLOUDY    25  23  92 SE7       30.33F WCI  17
OSU AIRPORT    CLOUDY    25  22  88 SE9       30.32F WCI  15
BOLTON FIELD   NOT AVBL
RICKENBACK AFB NOT AVBL
NEWARK         CLOUDY    25  20  81 SE6       30.34R WCI  18
MARION         CLOUDY    24  21  88 S9        30.30S WCI  14
LANCASTER      CLOUDY    26  21  81 SE9       30.34F WCI  17
ZANESVILLE     CLOUDY    24  21  88 SE7       30.34F WCI  16
NEW PHILLY     CLOUDY    24  21  88 SE6       30.37R WCI  17
$$




USA.gov is the U.S. government's official web portal to all federal, state and local government web resources and services.